Weather History for Troy, MI

Change the Weather History Date:

Monday, June 24, 2013

  Actual Average (KDET) Record (KDET)
Temperature  
Mean Temperature 78 °F -  
Max Temperature 88 °F 78 °F 97 °F (1952)
Min Temperature 69 °F 60 °F 46 °F (1979)
Cooling Degree Days 14    
Growing Degree Days 28 (Base 50)    
Moisture  
Dew Point 66 °F    
Average Humidity 66    
Maximum Humidity 88    
Minimum Humidity 44    
Precipitation  
Precipitation 0.00 in - - ()
Sea Level Pressure  
Sea Level Pressure 30.04 in    
Wind  
Wind Speed 7 mph (SW)    
Max Wind Speed 17 mph    
Max Gust Speed 26 mph    
Visibility 10 miles    
Events Rain    
Averages and records for this station are not official NWS values.
T = Trace of Precipitation, MM = Missing Value Source: NWS Daily Summary

Daily Weather History Graph

Daily Weather History Graph

Search for Another Location

Airport:

Trip Planner

Search our weather history database for the weather conditions in past years. The results will help you decide how hot, cold, wet, or windy it might be!

Date:

Astronomy

Jun. 24, 2013 Rise Set
Actual Time 5:56 AM EDT 9:14 PM EDT
Civil Twilight 5:21 AM EDT 9:49 PM EDT
Nautical Twilight 4:35 AM EDT 10:34 PM EDT
Astronomical Twilight 3:40 AM EDT 11:29 PM EDT
Moon 10:12 PM EDT (6/24) 7:24 AM EDT (6/24)
Length of Visible Light 16h 27m
Length of Day
15h 18m
Full, 98% of the Moon is Illuminated
Jun 24
Full
Jun 30
Last Quarter
Jul 8
New
Jul 15
First Quarter
Jul 22
Full

Hourly Weather History & Observations

Time (EDT) Temp. Heat Index Dew Point Humidity Pressure Visibility Wind Dir Wind Speed Gust Speed Precip Events Conditions
12:15 AM 77.5 °F - 63.7 °F 62% 30.03 in 10.0 mi SSW 5.8 mph - N/A   Clear
12:34 AM 77.0 °F - 63.7 °F 63% 30.04 in 10.0 mi WSW 4.6 mph - N/A   Clear
12:55 AM 76.1 °F - 63.5 °F 65% 30.03 in 10.0 mi WSW 3.5 mph - N/A   Clear
1:15 AM 75.6 °F - 63.5 °F 66% 30.04 in 10.0 mi Calm Calm - N/A   Clear
1:35 AM 75.4 °F - 63.7 °F 67% 30.06 in 10.0 mi West 3.5 mph - N/A   Clear
1:55 AM 74.8 °F - 63.9 °F 69% 30.07 in 10.0 mi SW 4.6 mph - N/A   Clear
2:15 AM 73.9 °F - 63.9 °F 71% 30.07 in 10.0 mi SSW 6.9 mph - N/A   Clear
2:35 AM 73.8 °F - 63.5 °F 70% 30.07 in 10.0 mi SW 6.9 mph - N/A   Clear
2:55 AM 73.6 °F - 63.7 °F 71% 30.08 in 10.0 mi SW 5.8 mph - N/A   Clear
3:15 AM 73.0 °F - 63.5 °F 72% 30.08 in 10.0 mi SW 5.8 mph - N/A   Clear
3:35 AM 72.7 °F - 63.5 °F 73% 30.08 in 10.0 mi SW 4.6 mph - N/A   Clear
3:55 AM 72.5 °F - 63.5 °F 73% 30.08 in 10.0 mi SSW 3.5 mph - N/A   Clear
4:14 AM 72.0 °F - 63.5 °F 75% 30.08 in 10.0 mi SW 5.8 mph - N/A   Clear
4:35 AM 71.6 °F - 63.5 °F 76% 30.08 in 10.0 mi SW 3.5 mph - N/A   Clear
4:55 AM 71.2 °F - 63.7 °F 77% 30.08 in 10.0 mi WSW 4.6 mph - N/A   Clear
5:14 AM 70.7 °F - 64.0 °F 79% 30.08 in 10.0 mi SW 3.5 mph - N/A   Clear
5:35 AM 70.2 °F - 64.4 °F 82% 30.07 in 10.0 mi SSW 3.5 mph - N/A   Clear
5:54 AM 69.8 °F - 64.4 °F 83% 30.07 in 10.0 mi SSW 3.5 mph - N/A   Clear
6:15 AM 70.0 °F - 64.6 °F 83% 30.07 in 10.0 mi SSW 5.8 mph - N/A   Clear
6:34 AM 69.8 °F - 64.9 °F 84% 30.08 in 10.0 mi SW 6.9 mph - N/A   Clear
6:55 AM 70.0 °F - 65.3 °F 85% 30.08 in 10.0 mi SSW 5.8 mph - N/A   Clear
7:15 AM 70.7 °F - 65.3 °F 83% 30.08 in 10.0 mi SW 5.8 mph - N/A   Clear
7:35 AM 71.2 °F - 65.7 °F 82% 30.08 in 10.0 mi SW 5.8 mph - N/A   Clear
7:55 AM 72.0 °F - 65.8 °F 81% 30.09 in 10.0 mi SW 6.9 mph - N/A   Clear
8:14 AM 72.9 °F - 66.2 °F 80% 30.09 in 10.0 mi WSW 9.2 mph - N/A   Clear
8:35 AM 73.6 °F - 66.7 °F 79% 30.10 in 10.0 mi SW 9.2 mph - N/A   Clear
8:55 AM 75.0 °F - 67.1 °F 76% 30.10 in 10.0 mi WSW 9.2 mph - N/A   Clear
9:15 AM 76.5 °F - 67.8 °F 75% 30.10 in 10.0 mi SW 8.1 mph - N/A   Clear
9:35 AM 77.7 °F - 68.0 °F 72% 30.10 in 10.0 mi WSW 11.5 mph - N/A   Clear
9:54 AM 79.0 °F - 68.0 °F 69% 30.10 in 10.0 mi WSW 10.4 mph - N/A   Clear
10:15 AM 79.7 °F - 68.2 °F 68% 30.10 in 10.0 mi SW 10.4 mph 18.4 mph N/A   Clear
10:35 AM 80.2 °F 83.1 °F 68.7 °F 68% 30.09 in 10.0 mi WSW 8.1 mph - N/A   Scattered Clouds
10:54 AM 81.1 °F 84.2 °F 68.9 °F 66% 30.09 in 10.0 mi WSW 10.4 mph 17.3 mph N/A   Scattered Clouds
11:15 AM 81.7 °F 84.9 °F 68.7 °F 65% 30.09 in 10.0 mi WSW 13.8 mph 20.7 mph N/A   Mostly Cloudy
11:34 AM 82.4 °F 85.8 °F 68.9 °F 64% 30.09 in 10.0 mi SW 9.2 mph - N/A   Scattered Clouds
11:55 AM 84.0 °F 87.0 °F 68.0 °F 58% 30.08 in 10.0 mi SW 12.7 mph 19.6 mph N/A   Scattered Clouds
12:15 PM 84.7 °F 87.9 °F 68.2 °F 57% 30.08 in 10.0 mi SW 13.8 mph 21.9 mph N/A   Scattered Clouds
12:34 PM 83.8 °F 87.0 °F 68.4 °F 59% 30.08 in 10.0 mi SW 10.4 mph 18.4 mph N/A   Scattered Clouds
12:55 PM 84.7 °F 88.2 °F 68.5 °F 58% 30.08 in 10.0 mi West 12.7 mph 18.4 mph N/A   Mostly Cloudy
1:15 PM 85.3 °F 88.5 °F 68.2 °F 56% 30.07 in 10.0 mi WSW 13.8 mph 19.6 mph N/A   Mostly Cloudy
1:34 PM 86.0 °F 89.4 °F 68.2 °F 55% 30.07 in 10.0 mi WSW 16.1 mph 20.7 mph N/A   Mostly Cloudy
1:55 PM 86.7 °F 89.6 °F 67.3 °F 52% 30.06 in 10.0 mi SW 13.8 mph 19.6 mph N/A   Scattered Clouds
2:15 PM 87.1 °F 89.9 °F 67.1 °F 51% 30.04 in 10.0 mi WSW 13.8 mph - N/A   Mostly Cloudy
2:35 PM 84.6 °F 87.4 °F 67.1 °F 56% 30.04 in 10.0 mi WSW 12.7 mph 20.7 mph N/A   Mostly Cloudy
2:55 PM 84.2 °F 86.6 °F 66.4 °F 55% 30.03 in 10.0 mi WSW 9.2 mph - N/A   Scattered Clouds
3:14 PM 85.8 °F 88.5 °F 66.7 °F 53% 30.02 in 10.0 mi SW 12.7 mph 18.4 mph N/A   Clear
3:35 PM 86.0 °F 88.8 °F 67.1 °F 53% 30.02 in 10.0 mi SW 10.4 mph - N/A   Scattered Clouds
3:55 PM 86.2 °F 88.8 °F 66.7 °F 52% 30.00 in 10.0 mi SW 11.5 mph - N/A   Mostly Cloudy
4:15 PM 86.0 °F 88.8 °F 67.1 °F 53% 30.00 in 10.0 mi SSW 5.8 mph - N/A   Mostly Cloudy
4:35 PM 86.4 °F 89.7 °F 68.2 °F 54% 30.00 in 10.0 mi South 9.2 mph - N/A   Mostly Cloudy
4:55 PM 87.8 °F 89.1 °F 63.9 °F 45% 30.00 in 10.0 mi WSW 9.2 mph 16.1 mph N/A   Mostly Cloudy
5:15 PM 87.8 °F 89.4 °F 64.9 °F 46% 29.98 in 10.0 mi WSW 6.9 mph - N/A   Scattered Clouds
5:35 PM 87.8 °F 88.8 °F 63.3 °F 44% 29.97 in 10.0 mi SSW 8.1 mph - N/A   Scattered Clouds
5:54 PM 88.2 °F 89.3 °F 63.5 °F 44% 29.96 in 10.0 mi WSW 10.4 mph - N/A   Clear
6:15 PM 88.0 °F 89.3 °F 64.2 °F 45% 29.96 in 10.0 mi WSW 6.9 mph - N/A   Clear
6:35 PM 86.7 °F 88.4 °F 64.6 °F 48% 29.96 in 10.0 mi WSW 9.2 mph - N/A   Scattered Clouds
6:55 PM 87.4 °F 89.1 °F 64.8 °F 47% 29.97 in 10.0 mi SW 11.5 mph - N/A   Scattered Clouds
7:15 PM 86.9 °F 88.9 °F 65.7 °F 49% 29.97 in 10.0 mi SW 10.4 mph 16.1 mph N/A   Scattered Clouds
7:34 PM 85.5 °F 87.6 °F 65.8 °F 52% 29.97 in 10.0 mi SW 5.8 mph 9.2 mph N/A   Scattered Clouds
7:55 PM 84.4 °F 87.1 °F 67.1 °F 56% 29.98 in 10.0 mi SW 8.1 mph - N/A   Scattered Clouds
8:15 PM 84.2 °F 86.8 °F 67.1 °F 56% 29.97 in 10.0 mi SW 8.1 mph - N/A   Scattered Clouds
8:34 PM 83.5 °F 86.0 °F 66.7 °F 57% 29.97 in 10.0 mi SW 5.8 mph - N/A   Clear
8:55 PM 83.3 °F 85.7 °F 66.6 °F 57% 29.97 in 10.0 mi SW 6.9 mph - N/A   Clear
9:15 PM 81.7 °F 84.0 °F 66.7 °F 60% 29.98 in 10.0 mi WNW 17.3 mph 26.5 mph N/A   Scattered Clouds
9:35 PM 73.8 °F - 67.3 °F 80% 29.96 in 7.0 mi NW 4.6 mph 17.3 mph N/A Rain Light Rain
9:55 PM 73.4 °F - 67.1 °F 81% 29.97 in 10.0 mi Calm Calm - N/A   Clear
10:15 PM 73.9 °F - 67.8 °F 81% 29.98 in 10.0 mi Calm Calm - N/A   Clear
10:35 PM 74.5 °F - 67.8 °F 80% 29.97 in 10.0 mi Calm Calm - N/A   Mostly Cloudy
10:55 PM 73.6 °F - 68.4 °F 84% 29.99 in 10.0 mi Calm Calm - N/A   Mostly Cloudy
11:15 PM 73.6 °F - 67.5 °F 81% 29.98 in 10.0 mi NNE 5.8 mph - N/A   Scattered Clouds
11:35 PM 72.0 °F - 68.0 °F 87% 29.98 in 10.0 mi North 4.6 mph - N/A   Clear
11:55 PM 70.9 °F - 67.3 °F 88% 29.98 in 10.0 mi Calm Calm - N/A   Clear